Nebraska City, NE

1:46 AM CST on February 23, 2017 (GMT -0600)
Nebraska City Municipal

Weather History for KAFK - May, 2013

Change the Weather History Date:

Saturday, May 11, 2013

  Actual Average (KSDA) Record (KSDA)
Temperature  
Mean Temperature 54 °F -  
Max Temperature 63 °F 73 °F 102 °F (2000)
Min Temperature 43 °F 49 °F 26 °F (1981)
Degree Days  
Heating Degree Days 12    
Growing Degree Days 4 (Base 50)    
Moisture  
Dew Point 29 °F    
Average Humidity 40    
Maximum Humidity 75    
Minimum Humidity 17    
Precipitation  
Precipitation 0.00 in - - ()
Sea Level Pressure  
Sea Level Pressure 30.19 in    
Wind  
Wind Speed 14 mph (NNW)    
Max Wind Speed 29 mph    
Max Gust Speed 38 mph    
Visibility 10 miles    
Events      
Averages and records for this station are not official NWS values.
T = Trace of Precipitation, MM = Missing Value Source: NWS Daily Summary

Daily Weather History Graph

Daily Weather History Graph

Search for Another Location

Airport or City:

Trip Planner

Search our weather history database for the weather conditions in past years. The results will help you decide how hot, cold, wet, or windy it might be!

Date:

Astronomy

May. 11, 2013 Rise Set
Actual Time 6:10 AM CDT 8:29 PM CDT
Civil Twilight 5:39 AM CDT 9:00 PM CDT
Nautical Twilight 5:01 AM CDT 9:38 PM CDT
Astronomical Twilight 4:20 AM CDT 10:20 PM CDT
Moon 7:18 AM CDT (5/11) 10:11 PM CDT (5/11)
Length of Visible Light 15h 20m
Length of Day
14h 19m
Waxing Crescent, 3% of the Moon is Illuminated
May 11
Waxing Crescent
May 17
First Quarter
May 24
Full
May 31
Last Quarter
Jun 8
New

Hourly Weather History & Observations

Time (CDT) Temp. Windchill Dew Point Humidity Pressure Visibility Wind Dir Wind Speed Gust Speed Precip Events Conditions
12:15 AM 52.7 °F - 43.2 °F 70% 30.05 in 10.0 mi West 8.1 mph - N/A   Clear
12:35 AM 51.8 °F - 43.0 °F 72% 30.05 in 10.0 mi West 8.1 mph - N/A   Clear
12:55 AM 51.8 °F - 43.7 °F 74% 30.05 in 10.0 mi West 9.2 mph - N/A   Clear
1:15 AM 52.2 °F - 43.7 °F 73% 30.05 in 10.0 mi WSW 8.1 mph - N/A   Clear
1:35 AM 53.4 °F - 43.9 °F 70% 30.04 in 10.0 mi WSW 10.4 mph - N/A   Clear
1:55 AM 52.3 °F - 44.6 °F 75% 30.04 in 10.0 mi WSW 10.4 mph - N/A   Clear
2:15 AM 52.2 °F - 44.6 °F 75% 30.04 in 10.0 mi WSW 11.5 mph - N/A   Clear
2:35 AM 53.2 °F - 45.0 °F 73% 30.03 in 10.0 mi West 11.5 mph - N/A   Clear
2:55 AM 52.7 °F - 44.6 °F 74% 30.04 in 10.0 mi West 10.4 mph - N/A   Clear
3:15 AM 52.9 °F - 44.8 °F 74% 30.04 in 10.0 mi West 10.4 mph - N/A   Clear
3:35 AM 53.1 °F - 44.6 °F 73% 30.04 in 10.0 mi West 10.4 mph - N/A   Clear
3:55 AM 51.8 °F - 44.1 °F 75% 30.06 in 10.0 mi West 9.2 mph - N/A   Clear
4:15 AM 52.9 °F - 44.4 °F 73% 30.08 in 10.0 mi NW 12.7 mph - N/A   Clear
4:35 AM 54.5 °F - 44.4 °F 69% 30.09 in 10.0 mi NNW 16.1 mph 23.0 mph N/A   Clear
4:55 AM 54.7 °F - 43.3 °F 66% 30.10 in 10.0 mi North 17.3 mph 25.3 mph N/A   Clear
5:15 AM 54.7 °F - 41.4 °F 61% 30.11 in 10.0 mi North 17.3 mph 25.3 mph N/A   Clear
5:35 AM 54.5 °F - 38.3 °F 54% 30.12 in 10.0 mi North 18.4 mph 25.3 mph N/A   Clear
5:55 AM 53.8 °F - 35.1 °F 49% 30.13 in 10.0 mi NNE 20.7 mph 28.8 mph N/A   Clear
6:15 AM 52.7 °F - 33.8 °F 49% 30.15 in 10.0 mi NNE 18.4 mph 21.9 mph N/A   Clear
6:35 AM 51.8 °F - 33.1 °F 49% 30.16 in 10.0 mi NNE 16.1 mph 19.6 mph N/A   Clear
6:55 AM 51.6 °F - 32.4 °F 48% 30.17 in 10.0 mi NNE 13.8 mph - N/A   Clear
7:15 AM 52.2 °F - 32.4 °F 47% 30.18 in 10.0 mi NNE 13.8 mph 19.6 mph N/A   Clear
7:35 AM 52.9 °F - 31.5 °F 44% 30.19 in 10.0 mi NNE 10.4 mph 20.7 mph N/A   Clear
7:55 AM 53.8 °F - 30.4 °F 41% 30.20 in 10.0 mi NNE 11.5 mph - N/A   Clear
8:15 AM 54.5 °F - 29.5 °F 38% 30.20 in 10.0 mi North 17.3 mph 23.0 mph N/A   Clear
8:35 AM 55.2 °F - 29.3 °F 37% 30.21 in 10.0 mi North 18.4 mph 26.5 mph N/A   Clear
8:55 AM 55.8 °F - 29.1 °F 36% 30.21 in 10.0 mi North 21.9 mph 27.6 mph N/A   Clear
9:15 AM 57.0 °F - 27.9 °F 33% 30.22 in 10.0 mi North 21.9 mph 29.9 mph N/A   Clear
9:35 AM 57.4 °F - 27.1 °F 31% 30.23 in 10.0 mi NNE 24.2 mph 35.7 mph N/A   Clear
9:55 AM 57.4 °F - 27.3 °F 32% 30.23 in 10.0 mi North 23.0 mph 34.5 mph N/A   Clear
10:15 AM 57.9 °F - 26.2 °F 30% 30.23 in 10.0 mi North 24.2 mph 31.1 mph N/A   Clear
10:35 AM 59.0 °F - 26.1 °F 28% 30.24 in 10.0 mi North 21.9 mph 27.6 mph N/A   Clear
10:55 AM 59.2 °F - 23.4 °F 25% 30.24 in 10.0 mi North 24.2 mph 32.2 mph N/A   Clear
11:15 AM 59.5 °F - 24.1 °F 26% 30.24 in 10.0 mi North 23.0 mph 32.2 mph N/A   Clear
11:35 AM 60.4 °F - 25.2 °F 26% 30.24 in 10.0 mi North 23.0 mph 26.5 mph N/A   Clear
11:55 AM 60.4 °F - 24.4 °F 25% 30.25 in 10.0 mi North 24.2 mph 31.1 mph N/A   Clear
12:15 PM 60.8 °F - 25.5 °F 26% 30.25 in 10.0 mi NNW 19.6 mph 26.5 mph N/A   Clear
12:35 PM 61.7 °F - 25.9 °F 26% 30.25 in 7.0 mi NNW 24.2 mph 31.1 mph N/A   Clear
12:55 PM 62.2 °F - 25.5 °F 25% 30.24 in 10.0 mi North 23.0 mph 38.0 mph N/A   Clear
1:15 PM 62.8 °F - 26.4 °F 25% 30.23 in 10.0 mi North 23.0 mph 32.2 mph N/A   Clear
1:35 PM 61.9 °F - 27.1 °F 27% 30.24 in 10.0 mi North 19.6 mph 29.9 mph N/A   Clear
1:55 PM 63.0 °F - 24.8 °F 23% 30.23 in 10.0 mi North 20.7 mph 31.1 mph N/A   Clear
2:15 PM 62.6 °F - 26.8 °F 26% 30.24 in 10.0 mi NNW 19.6 mph 32.2 mph N/A   Clear
2:35 PM 62.1 °F - 21.9 °F 21% 30.24 in 10.0 mi NNW 26.5 mph 32.2 mph N/A   Clear
2:55 PM 62.4 °F - 23.5 °F 23% 30.24 in 10.0 mi NNW 25.3 mph 32.2 mph N/A   Clear
3:15 PM 62.8 °F - 22.6 °F 22% 30.23 in 10.0 mi NNW 18.4 mph 27.6 mph N/A   Clear
3:35 PM 62.1 °F - 24.4 °F 24% 30.24 in 10.0 mi NNW 23.0 mph 33.4 mph N/A   Clear
3:55 PM 62.1 °F - 24.1 °F 23% 30.23 in 10.0 mi NNW 20.7 mph 32.2 mph N/A   Clear
4:15 PM 62.1 °F - 17.4 °F 18% 30.23 in 10.0 mi NNW 28.8 mph 32.2 mph N/A   Clear
4:35 PM 61.7 °F - 16.5 °F 17% 30.23 in 10.0 mi NNW 21.9 mph 32.2 mph N/A   Clear
5:15 PM 61.2 °F - 19.4 °F 20% 30.23 in 10.0 mi North 20.7 mph 26.5 mph N/A   Clear
5:35 PM 60.8 °F - 18.3 °F 19% 30.23 in 10.0 mi North 20.7 mph 28.8 mph N/A   Clear
5:55 PM 60.4 °F - 17.8 °F 19% 30.24 in 10.0 mi North 19.6 mph 29.9 mph N/A   Clear
6:15 PM 59.5 °F - 18.9 °F 21% 30.24 in 10.0 mi North 16.1 mph - N/A   Clear
6:35 PM 59.0 °F - 20.3 °F 22% 30.23 in 10.0 mi NNW 16.1 mph - N/A   Clear
6:55 PM 58.3 °F - 19.6 °F 22% 30.23 in 10.0 mi North 15.0 mph 23.0 mph N/A   Clear
7:15 PM 57.9 °F - 19.8 °F 23% 30.23 in 10.0 mi NNW 13.8 mph 18.4 mph N/A   Clear
7:35 PM 56.8 °F - 18.7 °F 23% 30.23 in 10.0 mi North 12.7 mph - N/A   Clear
7:55 PM 54.9 °F - 21.4 °F 27% 30.24 in 10.0 mi NNW 12.7 mph - N/A   Clear
8:15 PM 54.0 °F - 20.5 °F 27% 30.24 in 10.0 mi NNW 11.5 mph 18.4 mph N/A   Clear
8:35 PM 52.0 °F - 21.2 °F 30% 30.25 in 10.0 mi NNW 9.2 mph - N/A   Clear
8:55 PM 50.2 °F - 21.9 °F 33% 30.25 in 10.0 mi NNW 8.1 mph - N/A   Clear
9:15 PM 48.7 °F - 22.1 °F 35% 30.25 in 10.0 mi NNW 6.9 mph - N/A   Clear
9:35 PM 48.0 °F - 22.3 °F 36% 30.25 in 10.0 mi NNW 6.9 mph - N/A   Clear
9:55 PM 46.8 °F - 23.0 °F 39% 30.26 in 10.0 mi NNW 6.9 mph - N/A   Clear
10:15 PM 46.6 °F - 22.8 °F 39% 30.26 in 10.0 mi NNW 5.8 mph - N/A   Clear
10:35 PM 46.6 °F - 22.6 °F 39% 30.26 in 10.0 mi NNW 5.8 mph - N/A   Clear
10:55 PM 45.9 °F 43.6 °F 22.8 °F 40% 30.26 in 10.0 mi North 4.6 mph - N/A   Clear
11:15 PM 45.1 °F 42.0 °F 23.5 °F 43% 30.26 in 10.0 mi NNW 5.8 mph - N/A   Clear
11:35 PM 44.4 °F 40.5 °F 23.7 °F 44% 30.26 in 10.0 mi NNW 6.9 mph - N/A   Clear
11:55 PM 43.9 °F 41.3 °F 23.9 °F 45% 30.25 in 10.0 mi NNW 4.6 mph - N/A   Clear